[[[{"header":{"parameterUnit":"kt","parameterCategory":2,"dx":1,"dy":1,"la1":30.253999710083008,"la2":30.299108505249023,"lo1":-89.0895004272461,"lo2":-89.04439544677734,"nx":28,"ny":28,"refTime":"2022-10-19T09:00:00:Z","depth":"0","parameterNumber":2,"parameterNumberName":"U-component_of_CURRENTS"},"data":[-0.1481,-0.1423,-0.141,-0.1313,-0.1286,-0.1198,-0.1156,-0.11,-0.1091,-0.1072,-0.1097,-0.1152,-0.1105,-0.0932,-0.0723,-0.0664,-0.0541,-0.0509,-0.0471,-0.0568,-0.0593,-0.0617,-0.0576,-0.0371,-0.037,-0.0287,-0.0285,-0.0283,-0.1536,-0.1523,-0.1483,-0.143,-0.1387,-0.1398,-0.1346,-0.1299,-0.1245,-0.1264,-0.125,-0.1274,-0.1238,-0.1216,-0.1159,-0.101,-0.1015,-0.0882,-0.0856,-0.0851,-0.1102,-0.1079,-0.0978,-0.0979,-0.0979,-0.0979,-0.0979,-0.0979,-0.1637,-0.1607,-0.158,-0.1539,-0.1516,-0.1474,-0.1428,-0.1425,-0.1393,-0.1356,-0.1383,-0.1353,-0.1372,-0.14,-0.137,-0.1278,-0.1311,-0.1226,-0.1137,-0.1168,-0.112,-0.1427,-0.1385,-0.1385,-0.1386,-0.1386,-0.1386,0,-0.171,-0.1698,-0.168,-0.1642,-0.1611,-0.1588,-0.1559,-0.1545,-0.1548,-0.1529,-0.1481,-0.1459,-0.1446,-0.1428,-0.1451,-0.1445,-0.1367,-0.1453,-0.1321,-0.1163,-0.1178,-0.1157,-0.1472,-0.1419,-0.1419,-0.142,-0.142,-0.1421,-0.1781,-0.176,-0.1744,-0.1725,-0.1722,-0.1687,-0.1664,-0.1676,-0.1649,-0.1628,-0.1591,-0.1554,-0.1502,-0.1483,-0.1493,-0.1501,-0.1418,-0.1468,-0.1472,-0.1353,-0.1268,-0.1285,-0.1264,-0.1428,-0.1427,-0.1426,-0.1426,0,-0.1793,-0.1832,-0.1809,-0.1807,-0.1799,-0.1757,-0.1756,-0.1721,-0.1715,-0.1665,-0.1648,-0.1612,-0.1565,-0.156,-0.1534,-0.154,-0.1468,-0.1526,-0.1503,-0.1504,-0.1386,-0.1306,-0.1221,-0.1187,-0.1517,-0.1517,-0.1516,0,-0.1851,-0.1848,-0.1879,-0.1871,-0.1827,-0.185,-0.1798,-0.1779,-0.176,-0.1719,-0.17,-0.1644,-0.162,-0.1592,-0.159,-0.156,-0.1554,-0.1557,-0.1562,-0.1535,-0.1534,-0.1403,-0.1319,-0.1551,-0.1551,-0.1551,-0.1551,0,-0.1852,-0.192,-0.1917,-0.1922,-0.1929,-0.1909,-0.1893,-0.1856,-0.1834,-0.1775,-0.1745,-0.1682,-0.163,-0.1618,-0.1591,-0.1604,-0.1566,-0.1582,-0.1573,-0.1574,-0.1521,-0.1519,-0.1372,-0.1551,-0.1551,-0.1551,-0.1551,0,-0.1907,-0.1947,-0.1975,-0.1961,-0.1971,-0.1962,-0.19,-0.189,-0.1844,-0.1813,-0.1753,-0.1715,-0.1661,-0.1654,-0.1607,-0.1624,-0.1617,-0.1616,-0.1616,-0.1589,-0.1612,-0.1574,-0.1557,-0.143,-0.1634,-0.1635,-0.1635,0,-0.1843,-0.1935,-0.199,-0.1992,-0.2004,-0.2004,-0.1981,-0.196,-0.1917,-0.1854,-0.1811,-0.1745,-0.1725,-0.1683,-0.1663,-0.1648,-0.1634,-0.1649,-0.1626,-0.1625,-0.1623,-0.1614,-0.1579,-0.1568,-0.1642,-0.1641,-0.164,0,-0.1812,-0.1919,-0.1932,-0.1939,-0.1997,-0.1995,-0.199,-0.1972,-0.1937,-0.1888,-0.183,-0.1772,-0.1724,-0.1699,-0.1671,-0.1656,-0.1647,-0.1662,-0.1661,-0.1663,-0.1629,-0.1625,-0.1621,-0.1654,-0.1653,-0.1653,-0.1646,0,-0.1779,-0.1849,-0.1881,-0.1979,-0.1988,-0.2005,-0.2011,-0.1985,-0.1948,-0.1917,-0.1855,-0.1789,-0.1716,-0.1723,-0.1702,-0.1675,-0.1686,-0.1684,-0.1667,-0.1666,-0.1666,-0.1662,-0.1699,-0.1699,-0.1698,-0.1698,0,0,-0.1701,-0.1819,-0.1887,-0.1957,-0.196,-0.197,-0.1995,-0.1979,-0.1937,-0.1905,-0.1888,-0.178,-0.1748,-0.1704,-0.1697,-0.1689,-0.1689,-0.1683,-0.1672,-0.1669,-0.1666,-0.1666,-0.1662,-0.1697,-0.1697,-0.1697,-0.1697,0,-0.1715,-0.1805,-0.1883,-0.191,-0.1968,-0.196,-0.1977,-0.1971,-0.1947,-0.1903,-0.1861,-0.1815,-0.1756,-0.1714,-0.1697,-0.1687,-0.1682,-0.1701,-0.1686,-0.1669,-0.1667,-0.1665,-0.1664,-0.1662,-0.1696,-0.1696,-0.1696,0,-0.1694,-0.178,-0.1818,-0.1926,-0.1934,-0.1956,-0.1947,-0.1965,-0.1955,-0.1897,-0.1832,-0.1798,-0.1759,-0.1719,-0.1703,-0.1695,-0.1667,-0.1676,-0.1678,-0.1655,-0.1636,-0.1634,-0.1632,-0.1654,-0.1654,-0.1654,0,0,-0.171,-0.1796,-0.1863,-0.1931,-0.1953,-0.1949,-0.1951,-0.1948,-0.192,-0.1902,-0.1842,-0.1794,-0.1765,-0.1739,-0.1702,-0.1669,-0.1652,-0.1672,-0.1674,-0.1676,-0.1655,-0.1636,-0.1634,-0.1654,-0.1654,-0.1654,0,0,-0.1683,-0.1799,-0.1829,-0.193,-0.1947,-0.1937,-0.1937,-0.1932,-0.1887,-0.1878,-0.1822,-0.1807,-0.1774,-0.1746,-0.1749,-0.1707,-0.1697,-0.1695,-0.1723,-0.1725,-0.1727,-0.1709,-0.1727,0,0,0,0,0,-0.1726,-0.1796,-0.1824,-0.1848,-0.1926,-0.1942,-0.1938,-0.1919,-0.1906,-0.1909,-0.1848,-0.1837,-0.1731,-0.1733,-0.1722,-0.173,-0.1654,-0.1654,-0.1654,-0.1683,-0.1685,-0.1687,0,0,0,0,0,0,-0.1736,-0.1769,-0.182,-0.1832,-0.1848,-0.194,-0.1908,-0.1901,-0.1906,-0.1902,-0.1845,-0.1834,-0.1792,-0.1737,-0.1727,-0.1735,-0.173,-0.1654,-0.1654,-0.1654,-0.1684,-0.1686,-0.1687,0,0,0,0,0,-0.1743,-0.1769,-0.1929,-0.1825,-0.184,-0.183,-0.1907,-0.1901,-0.1894,-0.1847,-0.1837,-0.1885,-0.1793,-0.1782,-0.1731,-0.1741,-0.1736,-0.1732,-0.1654,-0.1654,-0.1654,-0.1685,0,0,0,0,0,0,-0.1748,-0.1722,-0.1928,-0.1926,-0.1826,-0.1821,-0.1831,-0.1901,-0.1836,-0.1829,-0.1884,-0.1881,-0.1793,-0.1785,-0.1777,-0.1744,-0.1741,-0.1737,-0.1735,-0.1654,-0.1654,-0.1654,0,0,0,0,0,0,-0.1707,-0.1722,-0.1926,-0.1929,-0.1927,-0.1814,-0.1823,-0.1791,-0.1834,-0.1873,-0.1871,-0.1883,-0.1806,-0.1787,-0.178,-0.1728,-0.1745,-0.1742,-0.1739,-0.1738,-0.1654,-0.1654,0,0,0,0,0,0,-0.1711,-0.1723,-0.1928,-0.1927,-0.1925,-0.1901,-0.1779,-0.1856,-0.186,-0.1874,-0.186,-0.186,-0.1809,-0.1801,-0.1783,-0.1734,-0.173,-0.1745,-0.1742,-0.1741,-0.174,0,0,0,0,0,0,0,-0.1713,-0.1667,-0.1948,-0.1925,-0.1924,-0.1918,-0.1916,-0.1915,-0.186,-0.186,-0.186,-0.186,-0.1764,-0.176,-0.1756,-0.1738,0,0,-0.1745,-0.1743,0,0,0,0,0,0,0,0,-0.1659,-0.1665,-0.1948,-0.1949,-0.1949,-0.1918,-0.1916,-0.1915,-0.186,-0.186,-0.186,-0.186,-0.1763,-0.176,-0.1757,0,0,0,0,0,0,0,0,0,0,0,0,0,0,0,-0.1948,-0.1949,0,-0.1918,-0.1916,-0.1915,-0.186,-0.186,-0.186,-0.186,-0.1762,-0.1759,-0.1757,0,0,0,0,0,0,0,0,0,0,0,0,0,0,0,0,0,0,0,0,0,0,0,0,0,0,0,0,0,0,0,0,0,0,0,0,0,0,0,0,0,0,0,0,0,0,0,0,0,0,0,0,0,0,0,0,0,0,0,0,0,0,0,0,0,0,0,0,0]}],[{"header":{"parameterUnit":"kt","parameterCategory":2,"dx":1,"dy":1,"la1":30.253999710083008,"la2":30.299108505249023,"lo1":-89.0895004272461,"lo2":-89.04439544677734,"nx":28,"ny":28,"refTime":"2022-10-19T09:00:00:Z","depth":"0","parameterNumber":3,"parameterNumberName":"V-component_of_CURRENTS"},"data":[-0.0826,-0.0939,-0.1008,-0.1209,-0.1305,-0.1453,-0.1513,-0.1625,-0.174,-0.1936,-0.2051,-0.2113,-0.1854,-0.1442,-0.1113,-0.1015,-0.0738,-0.069,-0.0599,-0.0795,-0.0805,-0.0814,-0.0745,-0.0714,-0.0713,-0.019,-0.0185,-0.0181,-0.08,-0.0889,-0.0991,-0.1147,-0.1246,-0.1276,-0.1388,-0.1469,-0.1594,-0.1709,-0.1807,-0.1883,-0.1811,-0.1679,-0.1486,-0.1318,-0.113,-0.1169,-0.0927,-0.0869,-0.1244,-0.1195,-0.126,-0.126,-0.126,-0.126,-0.126,-0.126,-0.0787,-0.0843,-0.0952,-0.106,-0.1152,-0.125,-0.1312,-0.1406,-0.1476,-0.1568,-0.1583,-0.1695,-0.1644,-0.1694,-0.1647,-0.1473,-0.1405,-0.1386,-0.129,-0.1182,-0.1063,-0.1608,-0.1616,-0.1617,-0.1617,-0.1618,-0.1618,0,-0.0819,-0.0861,-0.0925,-0.104,-0.1118,-0.1204,-0.1284,-0.1297,-0.1361,-0.138,-0.1452,-0.1485,-0.1513,-0.1553,-0.1599,-0.158,-0.1318,-0.1493,-0.1358,-0.1098,-0.1079,-0.1056,-0.1479,-0.1368,-0.1367,-0.1366,-0.1365,-0.1365,-0.0962,-0.0908,-0.1037,-0.1095,-0.1175,-0.1195,-0.1261,-0.1304,-0.1328,-0.1339,-0.1346,-0.1341,-0.1399,-0.1435,-0.1419,-0.1474,-0.1299,-0.1466,-0.1359,-0.1352,-0.1312,-0.1211,-0.1155,-0.1354,-0.1356,-0.1357,-0.1358,0,-0.1106,-0.115,-0.1138,-0.1247,-0.1279,-0.1258,-0.1412,-0.1365,-0.1348,-0.1333,-0.1304,-0.1298,-0.1314,-0.1321,-0.1257,-0.1281,-0.1205,-0.1302,-0.1388,-0.1443,-0.1411,-0.1342,-0.1076,-0.0999,-0.1419,-0.1421,-0.1423,0,-0.1393,-0.1331,-0.1486,-0.1478,-0.1405,-0.1573,-0.1468,-0.1487,-0.1477,-0.1444,-0.1392,-0.1338,-0.1248,-0.1248,-0.1255,-0.1288,-0.1193,-0.1262,-0.1315,-0.1289,-0.1308,-0.1141,-0.1064,-0.1052,-0.105,-0.1049,-0.1048,0,-0.1696,-0.1761,-0.1655,-0.1715,-0.1879,-0.1827,-0.1864,-0.1854,-0.1828,-0.1668,-0.1658,-0.1394,-0.1305,-0.1235,-0.1271,-0.1284,-0.1214,-0.1215,-0.1321,-0.1341,-0.1238,-0.1255,-0.1034,-0.1047,-0.1047,-0.1046,-0.1046,0,-0.2055,-0.2116,-0.2014,-0.2133,-0.2128,-0.2136,-0.2076,-0.2056,-0.1967,-0.1944,-0.1748,-0.1696,-0.1419,-0.1496,-0.1293,-0.1363,-0.1363,-0.1362,-0.1366,-0.1385,-0.1535,-0.1706,-0.1563,-0.1448,-0.1574,-0.1577,-0.1579,0,-0.2316,-0.2297,-0.2471,-0.2425,-0.2412,-0.2602,-0.254,-0.2542,-0.2521,-0.2396,-0.2186,-0.194,-0.1917,-0.1762,-0.1628,-0.1532,-0.1446,-0.1489,-0.1466,-0.1466,-0.167,-0.1516,-0.1481,-0.1595,-0.1606,-0.1603,-0.1601,0,-0.2536,-0.2752,-0.2746,-0.2755,-0.295,-0.2991,-0.2944,-0.2864,-0.2757,-0.2743,-0.2527,-0.2119,-0.2081,-0.1847,-0.1687,-0.1562,-0.1514,-0.1629,-0.1622,-0.1807,-0.144,-0.1553,-0.1547,-0.15,-0.1493,-0.1488,-0.1623,0,-0.2855,-0.2905,-0.2923,-0.2988,-0.3078,-0.3099,-0.3191,-0.3198,-0.3215,-0.3197,-0.2879,-0.2677,-0.2325,-0.2204,-0.2093,-0.1736,-0.1853,-0.1815,-0.1846,-0.1686,-0.1775,-0.1758,-0.1941,-0.194,-0.1939,-0.1938,0,0,-0.2972,-0.2996,-0.3181,-0.3219,-0.3257,-0.3444,-0.3398,-0.3443,-0.3467,-0.3363,-0.3443,-0.2917,-0.2703,-0.2227,-0.2148,-0.2056,-0.2088,-0.1992,-0.1743,-0.1722,-0.1702,-0.178,-0.1765,-0.1937,-0.1936,-0.1936,-0.1936,0,-0.305,-0.3188,-0.3166,-0.3271,-0.3411,-0.3479,-0.3498,-0.3619,-0.362,-0.3505,-0.3387,-0.3145,-0.2814,-0.2551,-0.2354,-0.2093,-0.2075,-0.1988,-0.1856,-0.1743,-0.1723,-0.1705,-0.1779,-0.1766,-0.1934,-0.1934,-0.1934,0,-0.3117,-0.3232,-0.3244,-0.34,-0.3478,-0.3497,-0.3617,-0.3717,-0.3684,-0.3609,-0.3476,-0.332,-0.2999,-0.271,-0.2552,-0.2544,-0.2104,-0.2154,-0.215,-0.208,-0.1963,-0.1938,-0.1917,-0.222,-0.2222,-0.2224,0,0,-0.3157,-0.3214,-0.3347,-0.3414,-0.3452,-0.3579,-0.3641,-0.3719,-0.3706,-0.3699,-0.3573,-0.334,-0.3076,-0.2911,-0.2702,-0.2406,-0.2375,-0.2204,-0.219,-0.218,-0.2108,-0.1986,-0.196,-0.2233,-0.2234,-0.2234,0,0,-0.3172,-0.3309,-0.3347,-0.3428,-0.3529,-0.3677,-0.372,-0.3786,-0.3734,-0.3712,-0.3555,-0.3495,-0.3218,-0.3048,-0.32,-0.2633,-0.2667,-0.2633,-0.2783,-0.2762,-0.2748,-0.2734,-0.3107,0,0,0,0,0,-0.325,-0.3287,-0.3319,-0.335,-0.3532,-0.3652,-0.3679,-0.3788,-0.3814,-0.3845,-0.3713,-0.361,-0.3077,-0.3211,-0.3143,-0.2952,-0.2352,-0.2331,-0.2311,-0.2434,-0.2415,-0.2399,0,0,0,0,0,0,-0.3263,-0.3298,-0.3319,-0.3463,-0.3507,-0.3651,-0.3703,-0.3733,-0.3814,-0.3825,-0.3651,-0.3604,-0.349,-0.3233,-0.3174,-0.2994,-0.3126,-0.2343,-0.2326,-0.231,-0.2427,-0.2412,-0.2398,0,0,0,0,0,-0.3274,-0.3302,-0.3562,-0.3465,-0.3502,-0.3656,-0.3703,-0.3728,-0.3791,-0.3632,-0.3604,-0.3872,-0.3495,-0.3431,-0.3197,-0.3024,-0.3165,-0.3144,-0.2332,-0.2318,-0.2305,-0.242,0,0,0,0,0,0,-0.3282,-0.3322,-0.3572,-0.3589,-0.3465,-0.3651,-0.3681,-0.3723,-0.3586,-0.3574,-0.3833,-0.384,-0.3496,-0.3446,-0.3398,-0.3041,-0.3198,-0.3176,-0.3163,-0.2321,-0.231,-0.23,0,0,0,0,0,0,-0.3309,-0.3334,-0.3581,-0.3574,-0.3591,-0.3646,-0.3673,-0.3446,-0.3564,-0.3786,-0.3797,-0.3834,-0.341,-0.3457,-0.3419,-0.3075,-0.3222,-0.3202,-0.3187,-0.3178,-0.2312,-0.2304,0,0,0,0,0,0,-0.3322,-0.3345,-0.357,-0.3583,-0.3598,-0.379,-0.3426,-0.3507,-0.3889,-0.3776,-0.3891,-0.3892,-0.3408,-0.338,-0.3434,-0.3108,-0.3084,-0.3222,-0.3208,-0.3198,-0.3191,0,0,0,0,0,0,0,-0.3333,-0.315,-0.3479,-0.359,-0.3603,-0.3746,-0.375,-0.3754,-0.3889,-0.389,-0.3891,-0.3892,-0.334,-0.3318,-0.3295,-0.3134,0,0,-0.3224,-0.3214,0,0,0,0,0,0,0,0,-0.3144,-0.3148,-0.348,-0.3483,-0.3487,-0.3746,-0.375,-0.3753,-0.3889,-0.389,-0.3891,-0.3892,-0.3334,-0.3316,-0.3297,0,0,0,0,0,0,0,0,0,0,0,0,0,0,0,-0.348,-0.3483,0,-0.3747,-0.3749,-0.3752,-0.389,-0.389,-0.3891,-0.3891,-0.3329,-0.3314,-0.3299,0,0,0,0,0,0,0,0,0,0,0,0,0,0,0,0,0,0,0,0,0,0,0,0,0,0,0,0,0,0,0,0,0,0,0,0,0,0,0,0,0,0,0,0,0,0,0,0,0,0,0,0,0,0,0,0,0,0,0,0,0,0,0,0,0,0,0,0,0]}]],[[{"header":{"parameterUnit":"kt","parameterCategory":2,"dx":1,"dy":1,"la1":30.253999710083008,"la2":30.299108505249023,"lo1":-89.0895004272461,"lo2":-89.04439544677734,"nx":28,"ny":28,"refTime":"2022-10-19T09:00:00:Z","depth":"2","parameterNumber":2,"parameterNumberName":"U-component_of_CURRENTS"},"data":[-0.1566,-0.1504,-0.1491,-0.139,-0.1365,-0.1281,-0.1241,-0.1216,-0.1251,-0.1262,-0.131,-0.1459,-0.1459,-0.1218,-0.1047,-0.0877,-0.0836,-0.0728,-0.1227,-0.1147,-0.1168,-0.1127,-0.108,0,0,0,0,0,-0.163,-0.1613,-0.1568,-0.1514,-0.1469,-0.1481,-0.1431,-0.14,-0.1353,-0.1414,-0.1415,-0.1333,-0.1322,-0.1283,-0.1143,-0.1111,-0.0987,-0.0943,-0.084,-0.0866,-0.0889,-0.0837,-0.0639,-0.0637,-0.0635,-0.0633,0,0,-0.1745,-0.1709,-0.1675,-0.1628,-0.1603,-0.1561,-0.1516,-0.1515,-0.1484,-0.1464,-0.1487,-0.1485,-0.1486,-0.1521,-0.1388,-0.126,-0.1416,-0.1324,-0.1328,-0.1336,-0.1311,-0.1321,-0.1238,-0.124,-0.1242,-0.1244,-0.1246,0,-0.1828,-0.182,-0.1785,-0.174,-0.1708,-0.1678,-0.165,-0.1634,-0.1638,-0.1618,-0.1572,-0.1556,-0.1546,-0.151,-0.1552,-0.1492,-0.1471,-0.1436,-0.1654,-0.1307,-0.1314,-0.1354,-0.1372,-0.1233,-0.1236,-0.1237,-0.1239,-0.1239,-0.1945,-0.1894,-0.1862,-0.1837,-0.1822,-0.1783,-0.1762,-0.1772,-0.1745,-0.172,-0.1681,-0.1647,-0.1607,-0.16,-0.1602,-0.1619,-0.163,-0.1481,-0.1465,-0.1685,-0.1726,-0.1734,-0.1741,-0.1264,-0.1261,-0.1258,-0.1256,0,-0.2019,-0.2001,-0.1935,-0.191,-0.1902,-0.1857,-0.1854,-0.1818,-0.1814,-0.1759,-0.174,-0.1706,-0.1665,-0.1665,-0.1633,-0.1651,-0.1644,-0.1646,-0.1497,-0.1511,-0.1735,-0.1743,-0.1663,-0.1664,-0.1664,-0.1664,-0.1664,0,-0.2116,-0.2066,-0.2037,-0.2004,-0.1949,-0.1955,-0.1901,-0.1887,-0.1867,-0.1824,-0.1808,-0.1747,-0.172,-0.1693,-0.1691,-0.1672,-0.1653,-0.1674,-0.1707,-0.1566,-0.156,-0.1694,-0.17,-0.164,-0.164,-0.164,-0.164,0,-0.2174,-0.2143,-0.2079,-0.207,-0.2049,-0.2021,-0.202,-0.1991,-0.197,-0.1908,-0.1889,-0.1796,-0.174,-0.1722,-0.1699,-0.1724,-0.1663,-0.1706,-0.1723,-0.1728,-0.155,-0.1543,-0.164,-0.164,-0.164,-0.164,-0.164,0,-0.2237,-0.2217,-0.2152,-0.2108,-0.2105,-0.2094,-0.2057,-0.2044,-0.2004,-0.199,-0.1919,-0.1889,-0.1785,-0.1806,-0.1724,-0.1763,-0.1761,-0.1763,-0.1765,-0.1746,-0.1832,-0.1715,-0.1613,-0.1839,-0.1841,-0.1842,-0.1843,0,-0.2269,-0.2223,-0.2239,-0.2195,-0.2169,-0.2206,-0.2174,-0.2171,-0.2162,-0.2111,-0.2047,-0.196,-0.1939,-0.1891,-0.1854,-0.182,-0.1797,-0.1825,-0.183,-0.1828,-0.1888,-0.1821,-0.1652,-0.1637,-0.1857,-0.1855,-0.1854,0,-0.2293,-0.227,-0.2268,-0.2245,-0.2289,-0.2296,-0.2272,-0.2267,-0.2235,-0.2213,-0.2148,-0.2009,-0.1986,-0.192,-0.188,-0.1853,-0.1826,-0.1887,-0.1886,-0.193,-0.1818,-0.1841,-0.1835,-0.1869,-0.1866,-0.1864,-0.1865,0,-0.2284,-0.2287,-0.2283,-0.2297,-0.2318,-0.2334,-0.2356,-0.235,-0.2359,-0.2365,-0.2253,-0.2178,-0.207,-0.2043,-0.2016,-0.1909,-0.1947,-0.1962,-0.1994,-0.1935,-0.1945,-0.1937,-0.2031,-0.203,-0.203,-0.203,0,0,-0.2304,-0.2314,-0.2354,-0.2358,-0.2373,-0.2445,-0.2443,-0.246,-0.2465,-0.2436,-0.2447,-0.2278,-0.2209,-0.2084,-0.2049,-0.2028,-0.2042,-0.2029,-0.1956,-0.1949,-0.1941,-0.1948,-0.1941,-0.2029,-0.2029,-0.2029,-0.2028,0,-0.2304,-0.2351,-0.2345,-0.2372,-0.2427,-0.2466,-0.247,-0.2519,-0.2523,-0.2481,-0.2445,-0.2358,-0.226,-0.2185,-0.2136,-0.2041,-0.2051,-0.202,-0.1977,-0.1956,-0.1949,-0.1942,-0.1948,-0.1941,-0.2027,-0.2027,-0.2028,0,-0.2322,-0.2358,-0.2361,-0.2428,-0.2464,-0.2479,-0.2535,-0.2577,-0.2573,-0.2558,-0.2498,-0.2444,-0.2357,-0.2265,-0.2211,-0.2226,-0.2081,-0.2106,-0.2105,-0.2055,-0.2032,-0.2023,-0.2015,-0.2127,-0.2128,-0.2129,0,0,-0.2327,-0.2336,-0.2402,-0.2434,-0.245,-0.2517,-0.255,-0.2589,-0.2589,-0.2592,-0.2542,-0.2469,-0.2388,-0.2343,-0.2263,-0.2182,-0.2163,-0.2124,-0.2119,-0.2116,-0.2066,-0.2041,-0.2031,-0.2132,-0.2132,-0.2132,0,0,-0.2327,-0.2374,-0.2399,-0.2444,-0.2488,-0.2562,-0.2585,-0.2623,-0.2614,-0.2605,-0.2561,-0.254,-0.2432,-0.2389,-0.2442,-0.2266,-0.2276,-0.2264,-0.2322,-0.2315,-0.231,-0.2274,-0.2429,0,0,0,0,0,-0.2339,-0.2362,-0.2384,-0.24,-0.2501,-0.2551,-0.2567,-0.2626,-0.2643,-0.2656,-0.2611,-0.2588,-0.24,-0.2447,-0.2426,-0.2377,-0.2176,-0.2168,-0.2161,-0.2212,-0.2205,-0.2199,0,0,0,0,0,0,-0.2345,-0.2362,-0.2384,-0.2455,-0.2479,-0.2551,-0.2583,-0.26,-0.2642,-0.2647,-0.2603,-0.2587,-0.2555,-0.2455,-0.2437,-0.239,-0.2435,-0.2173,-0.2166,-0.216,-0.2209,-0.2204,-0.2199,0,0,0,0,0,-0.2351,-0.2364,-0.2505,-0.2456,-0.2477,-0.256,-0.2582,-0.2597,-0.2632,-0.259,-0.2582,-0.2671,-0.2557,-0.2537,-0.2444,-0.2399,-0.2447,-0.244,-0.2169,-0.2164,-0.2159,-0.2207,0,0,0,0,0,0,-0.2355,-0.2387,-0.2511,-0.2521,-0.2447,-0.2557,-0.2574,-0.2593,-0.257,-0.2569,-0.2652,-0.2654,-0.2558,-0.2542,-0.2526,-0.2404,-0.2457,-0.245,-0.2446,-0.2165,-0.2161,-0.2157,0,0,0,0,0,0,-0.238,-0.2394,-0.2517,-0.2501,-0.251,-0.2555,-0.2569,-0.25,-0.2561,-0.263,-0.2635,-0.2652,-0.251,-0.2546,-0.2534,-0.2432,-0.2465,-0.2458,-0.2454,-0.2451,-0.2161,-0.2158,0,0,0,0,0,0,-0.2388,-0.24,-0.2499,-0.2506,-0.2513,-0.2629,-0.2487,-0.2544,-0.2689,-0.2624,-0.2688,-0.2687,-0.2508,-0.2501,-0.2539,-0.2443,-0.2434,-0.2464,-0.246,-0.2457,-0.2455,0,0,0,0,0,0,0,-0.2394,-0.2289,-0.2451,-0.2509,-0.2516,-0.2612,-0.2615,-0.2618,-0.2689,-0.2688,-0.2688,-0.2688,-0.2501,-0.2494,-0.2487,-0.2451,0,0,-0.2465,-0.2462,0,0,0,0,0,0,0,0,-0.2286,-0.2288,-0.2452,-0.2454,-0.2456,-0.2613,-0.2615,-0.2617,-0.2689,-0.2688,-0.2688,-0.2688,-0.2499,-0.2493,-0.2488,0,0,0,0,0,0,0,0,0,0,0,0,0,0,0,-0.2452,-0.2453,0,-0.2613,-0.2615,-0.2617,-0.2689,-0.2688,-0.2688,-0.2688,-0.2498,-0.2493,-0.2488,0,0,0,0,0,0,0,0,0,0,0,0,0,0,0,0,0,0,0,0,0,0,0,0,0,0,0,0,0,0,0,0,0,0,0,0,0,0,0,0,0,0,0,0,0,0,0,0,0,0,0,0,0,0,0,0,0,0,0,0,0,0,0,0,0,0,0,0,0]}],[{"header":{"parameterUnit":"kt","parameterCategory":2,"dx":1,"dy":1,"la1":30.253999710083008,"la2":30.299108505249023,"lo1":-89.0895004272461,"lo2":-89.04439544677734,"nx":28,"ny":28,"refTime":"2022-10-19T09:00:00:Z","depth":"2","parameterNumber":3,"parameterNumberName":"V-component_of_CURRENTS"},"data":[-0.057,-0.0671,-0.0739,-0.0937,-0.1043,-0.1183,-0.1237,-0.1212,-0.115,-0.0918,-0.0624,-0.0485,-0.0068,0.0328,0.0547,0.0817,0.057,0.0794,0.0349,0.0364,0.0312,0.0439,0.0625,0,0,0,0,0,-0.0551,-0.0639,-0.0748,-0.0904,-0.1004,-0.1048,-0.1154,-0.1162,-0.1187,-0.1105,-0.1064,-0.0544,-0.0185,0.0006,0.0435,0.0534,0.0496,0.0574,0.0639,0.0595,0.0552,0.0691,0.1009,0.1008,0.1006,0.1004,0,0,-0.0549,-0.0606,-0.0719,-0.083,-0.093,-0.103,-0.1087,-0.1143,-0.1166,-0.1145,-0.1147,-0.0946,-0.0704,-0.0318,-0.0253,-0.0062,-0.0117,0.013,0.0113,0.0088,0.0208,0.0177,0.0398,0.0394,0.039,0.0387,0.0384,0,-0.0563,-0.0599,-0.0681,-0.0807,-0.0891,-0.0974,-0.1055,-0.1076,-0.1125,-0.1105,-0.1136,-0.1117,-0.0999,-0.0705,-0.0565,-0.0484,-0.0374,-0.0271,-0.0796,0.0035,-0.0005,-0.0015,-0.0047,0.017,0.0164,0.016,0.0157,0.0154,-0.0586,-0.0616,-0.075,-0.0813,-0.0882,-0.094,-0.1003,-0.1041,-0.1071,-0.1083,-0.1096,-0.1065,-0.1061,-0.0989,-0.083,-0.0772,-0.0836,-0.0406,-0.023,-0.0741,-0.075,-0.0759,-0.0767,0.0093,0.0101,0.0107,0.0112,0,-0.0591,-0.0692,-0.0772,-0.0891,-0.0925,-0.0952,-0.1042,-0.1059,-0.1056,-0.1064,-0.1048,-0.1037,-0.1019,-0.1007,-0.0942,-0.0868,-0.0819,-0.0795,-0.0562,-0.0523,-0.0777,-0.0783,-0.0691,-0.0688,-0.0685,-0.0684,-0.0682,0,-0.0665,-0.0717,-0.0863,-0.089,-0.095,-0.102,-0.1046,-0.1081,-0.1091,-0.1096,-0.1057,-0.1041,-0.0958,-0.0956,-0.0938,-0.0871,-0.0891,-0.0753,-0.075,-0.0481,-0.0458,-0.0764,-0.0764,-0.0755,-0.0754,-0.0753,-0.0752,0,-0.0667,-0.0825,-0.0899,-0.0932,-0.1048,-0.1085,-0.1123,-0.115,-0.1169,-0.1124,-0.1108,-0.1039,-0.0988,-0.0932,-0.0926,-0.0908,-0.0882,-0.0836,-0.077,-0.0773,-0.043,-0.0403,-0.0751,-0.0751,-0.0751,-0.075,-0.075,0,-0.0745,-0.0838,-0.0938,-0.1034,-0.1051,-0.1093,-0.1123,-0.1168,-0.117,-0.1169,-0.1119,-0.1076,-0.1017,-0.0975,-0.0916,-0.0936,-0.0915,-0.0893,-0.0896,-0.0748,-0.0774,-0.0583,-0.0506,-0.0993,-0.0994,-0.0995,-0.0996,0,-0.0737,-0.0868,-0.091,-0.1005,-0.1051,-0.1094,-0.1147,-0.1175,-0.1185,-0.116,-0.1126,-0.1091,-0.1084,-0.1044,-0.099,-0.0954,-0.0931,-0.0939,-0.0868,-0.0867,-0.0816,-0.0799,-0.0475,-0.0534,-0.1005,-0.1004,-0.1003,0,-0.0678,-0.0818,-0.0833,-0.0893,-0.0982,-0.0977,-0.1081,-0.1095,-0.1125,-0.1126,-0.1117,-0.1127,-0.1046,-0.1039,-0.1013,-0.0953,-0.0958,-0.0942,-0.0935,-0.102,-0.0904,-0.0829,-0.0817,-0.0902,-0.0899,-0.0897,-0.101,0,-0.0651,-0.0749,-0.0791,-0.0893,-0.0917,-0.0954,-0.0975,-0.101,-0.1063,-0.1034,-0.1063,-0.1032,-0.0995,-0.1009,-0.1029,-0.0972,-0.1015,-0.0953,-0.0909,-0.0906,-0.0966,-0.0961,-0.099,-0.0987,-0.0986,-0.0984,0,0,-0.0586,-0.0655,-0.0678,-0.075,-0.0779,-0.0815,-0.0861,-0.0875,-0.0907,-0.0917,-0.0944,-0.0949,-0.0973,-0.0981,-0.0962,-0.0989,-0.0991,-0.0974,-0.0915,-0.0909,-0.0902,-0.0958,-0.0955,-0.0981,-0.098,-0.098,-0.0979,0,-0.0514,-0.0591,-0.0662,-0.0681,-0.0762,-0.0736,-0.0802,-0.0782,-0.0801,-0.089,-0.088,-0.0903,-0.0982,-0.0911,-0.0922,-0.0976,-0.0953,-0.0984,-0.0979,-0.0904,-0.09,-0.0895,-0.0951,-0.095,-0.0975,-0.0975,-0.0975,0,-0.0438,-0.0499,-0.053,-0.0596,-0.0617,-0.0642,-0.0627,-0.068,-0.0723,-0.073,-0.0813,-0.082,-0.0829,-0.0853,-0.0895,-0.0868,-0.0907,-0.0916,-0.0923,-0.0876,-0.0794,-0.079,-0.0786,-0.0835,-0.0835,-0.0835,0,0,-0.0414,-0.0479,-0.0496,-0.0583,-0.0602,-0.0614,-0.0636,-0.0636,-0.0672,-0.0701,-0.0726,-0.0758,-0.0799,-0.0846,-0.0844,-0.0917,-0.0874,-0.0906,-0.0912,-0.0918,-0.0877,-0.0796,-0.0792,-0.0836,-0.0836,-0.0836,0,0,-0.0364,-0.0408,-0.0465,-0.0542,-0.0562,-0.0496,-0.0537,-0.057,-0.0627,-0.0678,-0.0692,-0.071,-0.0822,-0.0801,-0.0814,-0.0805,-0.0764,-0.0767,-0.085,-0.0858,-0.0864,-0.0808,-0.073,0,0,0,0,0,-0.0352,-0.0405,-0.046,-0.0481,-0.0511,-0.0492,-0.0485,-0.0481,-0.0552,-0.0564,-0.0639,-0.0628,-0.0742,-0.0755,-0.0775,-0.0789,-0.0847,-0.0845,-0.0843,-0.0966,-0.0974,-0.0981,0,0,0,0,0,0,-0.0359,-0.0381,-0.0457,-0.0408,-0.0418,-0.0488,-0.0455,-0.0448,-0.0547,-0.055,-0.0608,-0.0624,-0.0576,-0.0745,-0.0763,-0.0775,-0.0723,-0.0846,-0.0844,-0.0843,-0.0969,-0.0975,-0.0981,0,0,0,0,0,-0.0365,-0.0383,-0.0462,-0.0403,-0.0411,-0.042,-0.0455,-0.045,-0.0526,-0.0519,-0.0533,-0.055,-0.0572,-0.0597,-0.0755,-0.0766,-0.0711,-0.0718,-0.0845,-0.0844,-0.0843,-0.0972,0,0,0,0,0,0,-0.037,-0.0312,-0.046,-0.0459,-0.0432,-0.0415,-0.0418,-0.0451,-0.0492,-0.0505,-0.0451,-0.0451,-0.057,-0.0589,-0.0607,-0.0761,-0.0701,-0.0708,-0.0712,-0.0844,-0.0843,-0.0842,0,0,0,0,0,0,-0.0305,-0.0311,-0.0458,-0.0496,-0.0498,-0.041,-0.0414,-0.0481,-0.0498,-0.0416,-0.0419,-0.0453,-0.0634,-0.0583,-0.0598,-0.0691,-0.0693,-0.0699,-0.0704,-0.0707,-0.0843,-0.0842,0,0,0,0,0,0,-0.0305,-0.0311,-0.0493,-0.0495,-0.0496,-0.0464,-0.0472,-0.0546,-0.041,-0.0417,-0.0416,-0.0419,-0.0634,-0.0643,-0.0591,-0.0677,-0.0687,-0.0693,-0.0698,-0.0701,-0.0703,0,0,0,0,0,0,0,-0.0306,-0.0295,-0.0499,-0.0494,-0.0495,-0.0459,-0.0455,-0.0452,-0.041,-0.0413,-0.0415,-0.0418,-0.0655,-0.0663,-0.067,-0.0665,0,0,-0.0692,-0.0696,0,0,0,0,0,0,0,0,-0.0291,-0.0294,-0.0499,-0.0501,-0.0503,-0.0458,-0.0455,-0.0452,-0.0411,-0.0413,-0.0415,-0.0417,-0.0657,-0.0663,-0.0669,0,0,0,0,0,0,0,0,0,0,0,0,0,0,0,-0.05,-0.0501,0,-0.0458,-0.0455,-0.0453,-0.0411,-0.0413,-0.0414,-0.0416,-0.0659,-0.0664,-0.0669,0,0,0,0,0,0,0,0,0,0,0,0,0,0,0,0,0,0,0,0,0,0,0,0,0,0,0,0,0,0,0,0,0,0,0,0,0,0,0,0,0,0,0,0,0,0,0,0,0,0,0,0,0,0,0,0,0,0,0,0,0,0,0,0,0,0,0,0,0]}]],[[{"header":{"parameterUnit":"kt","parameterCategory":2,"dx":1,"dy":1,"la1":30.253999710083008,"la2":30.299108505249023,"lo1":-89.0895004272461,"lo2":-89.04439544677734,"nx":28,"ny":28,"refTime":"2022-10-19T09:00:00:Z","depth":"4","parameterNumber":2,"parameterNumberName":"U-component_of_CURRENTS"},"data":[-0.0596,-0.0537,-0.0503,-0.0374,-0.0298,-0.0279,-0.0322,-0.0389,-0.0401,-0.0481,-0.0488,-0.0522,-0.0535,-0.0579,-0.0549,-0.0555,-0.0668,-0.062,-0.0618,-0.0861,-0.0879,-0.0896,-0.1028,0,0,0,0,0,-0.0658,-0.0593,-0.0535,-0.0509,-0.0433,-0.0477,-0.0538,-0.0655,-0.0767,-0.0569,-0.077,-0.0607,-0.0605,-0.0612,-0.0592,-0.0631,-0.0759,-0.0603,-0.0807,-0.0872,-0.0893,-0.1015,0,0,0,0,0,0,-0.0764,-0.0698,-0.0723,-0.0699,-0.0674,-0.0653,-0.0792,-0.083,-0.0871,-0.0918,-0.0792,-0.0789,-0.0799,-0.0784,-0.0728,-0.074,-0.0757,-0.0788,-0.0811,-0.0831,-0.091,-0.0916,-0.0534,0,0,0,0,0,-0.0872,-0.0888,-0.0932,-0.0902,-0.0989,-0.1022,-0.1198,-0.1171,-0.1295,-0.1319,-0.1149,-0.1122,-0.0918,-0.0919,-0.0904,-0.0864,-0.1096,-0.0984,-0.0997,-0.1161,-0.118,-0.1232,-0.1268,-0.097,-0.0972,-0.0974,-0.0975,0,-0.0981,-0.1013,-0.1156,-0.1148,-0.1327,-0.1529,-0.1575,-0.184,-0.1754,-0.1713,-0.1514,-0.1419,-0.1332,-0.1087,-0.1142,-0.1082,-0.1101,-0.1036,-0.1211,-0.1215,-0.1255,-0.1289,-0.1319,-0.0991,-0.099,-0.0989,-0.0987,0,-0.1043,-0.1143,-0.1238,-0.1518,-0.164,-0.1734,-0.2022,-0.1982,-0.2111,-0.1908,-0.1883,-0.1802,-0.1628,-0.1631,-0.1497,-0.1457,-0.1342,-0.1269,-0.1491,-0.153,-0.1334,-0.1359,-0.1018,-0.1012,-0.1007,-0.1003,-0.0999,0,-0.1159,-0.1255,-0.1457,-0.1519,-0.1681,-0.1936,-0.2079,-0.2187,-0.2229,-0.2089,-0.2158,-0.198,-0.2005,-0.1864,-0.1829,-0.1615,-0.1638,-0.1551,-0.1555,-0.1833,-0.1855,-0.1784,-0.1803,-0.1642,-0.1644,-0.1646,-0.1648,0,-0.1146,-0.1358,-0.1458,-0.1535,-0.1775,-0.1978,-0.2147,-0.226,-0.2276,-0.2289,-0.2216,-0.2161,-0.2079,-0.2002,-0.1917,-0.1982,-0.1717,-0.1831,-0.1662,-0.1657,-0.1803,-0.1818,-0.165,-0.1651,-0.1651,-0.1652,-0.1653,0,-0.1232,-0.1277,-0.1419,-0.1661,-0.1716,-0.1914,-0.2097,-0.2228,-0.2281,-0.2337,-0.2294,-0.2296,-0.2201,-0.2236,-0.2071,-0.2154,-0.2082,-0.2058,-0.205,-0.1904,-0.2008,-0.1994,-0.2,-0.2004,-0.2007,-0.2011,-0.2014,0,-0.1201,-0.1283,-0.1387,-0.158,-0.1652,-0.1803,-0.1979,-0.2115,-0.2221,-0.2303,-0.2315,-0.241,-0.2432,-0.2428,-0.2345,-0.2343,-0.2226,-0.236,-0.2159,-0.215,-0.1985,-0.1952,-0.2329,-0.2063,-0.2057,-0.2052,-0.2049,0,-0.1148,-0.1252,-0.1266,-0.1348,-0.1511,-0.1583,-0.1799,-0.1944,-0.2,-0.223,-0.2286,-0.2488,-0.2427,-0.2469,-0.2497,-0.2416,-0.23,-0.2416,-0.2412,-0.2219,-0.2114,-0.2025,-0.1987,-0.2352,-0.2348,-0.2344,-0.2084,0,-0.114,-0.121,-0.1236,-0.1329,-0.1416,-0.1503,-0.1643,-0.1794,-0.1945,-0.202,-0.2224,-0.2346,-0.2441,-0.2551,-0.2559,-0.2543,-0.2519,-0.2576,-0.2415,-0.2477,-0.2372,-0.2345,-0.265,-0.2649,-0.2648,-0.2648,0,0,-0.1102,-0.1131,-0.1131,-0.119,-0.1266,-0.1299,-0.1407,-0.1504,-0.174,-0.1817,-0.1909,-0.2214,-0.2334,-0.2404,-0.2471,-0.2596,-0.2528,-0.2474,-0.2516,-0.2502,-0.2488,-0.2385,-0.2361,-0.2647,-0.2647,-0.2646,-0.2646,0,-0.1068,-0.1073,-0.1106,-0.1155,-0.1213,-0.126,-0.13,-0.1429,-0.1536,-0.178,-0.1867,-0.1994,-0.2297,-0.2329,-0.2377,-0.2578,-0.2483,-0.2694,-0.2574,-0.2515,-0.2502,-0.249,-0.2387,-0.2365,-0.2645,-0.2645,-0.2645,0,-0.1034,-0.1048,-0.1065,-0.1112,-0.1131,-0.1215,-0.1196,-0.1269,-0.1398,-0.1446,-0.1737,-0.1856,-0.1969,-0.2171,-0.2278,-0.2208,-0.2351,-0.2422,-0.243,-0.2315,-0.2244,-0.2234,-0.2225,-0.2307,-0.2305,-0.2304,0,0,-0.102,-0.104,-0.1083,-0.1111,-0.113,-0.117,-0.1203,-0.1249,-0.136,-0.1416,-0.1588,-0.1749,-0.1894,-0.1971,-0.2146,-0.2289,-0.2189,-0.2374,-0.239,-0.2403,-0.2297,-0.223,-0.2224,-0.2297,-0.2297,-0.2297,0,0,-0.1021,-0.1057,-0.1054,-0.1094,-0.1136,-0.1173,-0.1203,-0.1243,-0.1376,-0.1414,-0.1518,-0.1564,-0.1819,-0.1859,-0.1761,-0.2081,-0.2026,-0.2049,-0.201,-0.2031,-0.2047,-0.1874,-0.1734,0,0,0,0,0,-0.1016,-0.1046,-0.1042,-0.1052,-0.11,-0.1158,-0.1166,-0.1213,-0.1235,-0.1273,-0.1426,-0.1429,-0.1843,-0.1757,-0.1793,-0.1875,-0.221,-0.2225,-0.224,-0.2234,-0.2256,-0.2274,0,0,0,0,0,0,-0.102,-0.1029,-0.1043,-0.1074,-0.1087,-0.1155,-0.1155,-0.1166,-0.1233,-0.1242,-0.1399,-0.1431,-0.149,-0.1741,-0.1773,-0.185,-0.1723,-0.2216,-0.2229,-0.2241,-0.2242,-0.2259,-0.2275,0,0,0,0,0,-0.1023,-0.1031,-0.1098,-0.1075,-0.1085,-0.1148,-0.1156,-0.1166,-0.1227,-0.1339,-0.1369,-0.1272,-0.1485,-0.1525,-0.176,-0.1834,-0.1701,-0.1713,-0.2225,-0.2235,-0.2244,-0.225,0,0,0,0,0,0,-0.1026,-0.1029,-0.1101,-0.1106,-0.1092,-0.1148,-0.1158,-0.1166,-0.1325,-0.135,-0.1214,-0.1219,-0.1482,-0.1514,-0.1543,-0.1827,-0.1683,-0.1695,-0.1703,-0.2232,-0.224,-0.2248,0,0,0,0,0,0,-0.1027,-0.1033,-0.1103,-0.1122,-0.113,-0.1148,-0.1157,-0.1275,-0.1332,-0.1192,-0.1199,-0.1216,-0.1504,-0.1505,-0.1529,-0.1706,-0.1669,-0.1681,-0.1689,-0.1694,-0.2239,-0.2245,0,0,0,0,0,0,-0.103,-0.1036,-0.1121,-0.1127,-0.1133,-0.1191,-0.1261,-0.1344,-0.1229,-0.1188,-0.1235,-0.1237,-0.1499,-0.1521,-0.1519,-0.1684,-0.17,-0.167,-0.1677,-0.1683,-0.1687,0,0,0,0,0,0,0,-0.1033,-0.0983,-0.1077,-0.113,-0.1136,-0.1156,-0.1157,-0.1157,-0.123,-0.1232,-0.1234,-0.1236,-0.1603,-0.1616,-0.1629,-0.1666,0,0,-0.1668,-0.1674,0,0,0,0,0,0,0,0,-0.0982,-0.0983,-0.1077,-0.1079,-0.108,-0.1156,-0.1157,-0.1157,-0.123,-0.1232,-0.1234,-0.1235,-0.1607,-0.1617,-0.1627,0,0,0,0,0,0,0,0,0,0,0,0,0,0,0,-0.1078,-0.1079,0,-0.1156,-0.1157,-0.1157,-0.1231,-0.1232,-0.1233,-0.1235,-0.161,-0.1618,-0.1627,0,0,0,0,0,0,0,0,0,0,0,0,0,0,0,0,0,0,0,0,0,0,0,0,0,0,0,0,0,0,0,0,0,0,0,0,0,0,0,0,0,0,0,0,0,0,0,0,0,0,0,0,0,0,0,0,0,0,0,0,0,0,0,0,0,0,0,0,0]}],[{"header":{"parameterUnit":"kt","parameterCategory":2,"dx":1,"dy":1,"la1":30.253999710083008,"la2":30.299108505249023,"lo1":-89.0895004272461,"lo2":-89.04439544677734,"nx":28,"ny":28,"refTime":"2022-10-19T09:00:00:Z","depth":"4","parameterNumber":3,"parameterNumberName":"V-component_of_CURRENTS"},"data":[0.0069,0.0057,0.0024,0.0,-0.0024,-0.0134,-0.0239,-0.0306,-0.0219,-0.02,0.0006,0.0077,0.0427,0.0296,0.0764,0.0811,0.0904,0.1105,0.1109,0.1243,0.1242,0.1241,0.132,0,0,0,0,0,0.0017,0.0036,-0.0036,-0.0117,-0.0216,-0.0262,-0.0416,-0.0474,-0.0488,-0.0339,-0.0259,-0.0027,0.0334,0.0439,0.0704,0.0646,0.0989,0.0947,0.1054,0.1243,0.1242,0.1318,0,0,0,0,0,0,-0.0036,-0.0071,-0.0105,-0.019,-0.0288,-0.0378,-0.0452,-0.0393,-0.0389,-0.0269,-0.0256,0.0021,0.0164,0.0491,0.0712,0.0969,0.1001,0.1064,0.1072,0.1073,0.1107,0.1004,0.0963,0,0,0,0,0,-0.0048,-0.0069,-0.0141,-0.0239,-0.03,-0.0405,-0.042,-0.044,-0.0397,-0.037,-0.0201,0.0022,0.0241,0.0541,0.0817,0.1024,0.1163,0.121,0.1211,0.1283,0.1217,0.1254,0.1256,0.1238,0.1238,0.1238,0.1238,0,0.0037,-0.0045,-0.0167,-0.0221,-0.0229,-0.0308,-0.0331,-0.0313,-0.0296,-0.0213,-0.0196,0.0015,0.0185,0.0555,0.0801,0.1098,0.1181,0.1207,0.1284,0.1215,0.1253,0.1255,0.1257,0.1237,0.1237,0.1237,0.1237,0,0.0117,0.0066,-0.0067,-0.0136,-0.0161,-0.0234,-0.0212,-0.023,-0.0162,-0.0126,-0.0087,0.0108,0.0326,0.0621,0.0875,0.1012,0.1195,0.1254,0.1171,0.1211,0.1254,0.1256,0.1236,0.1236,0.1236,0.1236,0.1236,0,0.026,0.0149,0.0122,0.0041,-0.0089,-0.0038,-0.0101,-0.0071,0.0003,0.0013,0.0208,0.0265,0.0572,0.0745,0.0926,0.1121,0.1124,0.1268,0.1305,0.1317,0.1318,0.1159,0.1142,0.1315,0.1316,0.1317,0.1317,0,0.0441,0.035,0.0218,0.0186,0.0142,0.0134,0.0118,0.0186,0.0195,0.0278,0.0333,0.048,0.0576,0.0749,0.1002,0.1036,0.1192,0.1247,0.1316,0.1313,0.1157,0.1139,0.1318,0.1318,0.1319,0.1319,0.1319,0,0.063,0.0557,0.0428,0.0358,0.0312,0.0297,0.0225,0.0243,0.0335,0.0405,0.0531,0.0642,0.0767,0.0904,0.1069,0.1094,0.1183,0.1281,0.1282,0.1125,0.1178,0.1109,0.1274,0.1274,0.1275,0.1275,0.1275,0,0.0766,0.0653,0.0682,0.0562,0.0455,0.0472,0.049,0.0492,0.0561,0.0588,0.0747,0.0805,0.0936,0.0991,0.1114,0.1191,0.1255,0.1269,0.1168,0.1159,0.1207,0.1359,0.1385,0.128,0.1279,0.1279,0.1279,0,0.0852,0.0817,0.0792,0.0715,0.066,0.0568,0.0638,0.0553,0.0549,0.0705,0.0706,0.0912,0.0944,0.0934,0.1001,0.1093,0.1254,0.1107,0.1103,0.1099,0.1337,0.1358,0.1357,0.1383,0.1383,0.1384,0.1282,0,0.0875,0.0849,0.0842,0.0747,0.0698,0.0616,0.058,0.0599,0.0659,0.0653,0.0768,0.0848,0.0843,0.0973,0.0964,0.106,0.1007,0.1035,0.0921,0.104,0.0972,0.0971,0.0884,0.0877,0.0872,0.0868,0,0,0.0899,0.0831,0.0796,0.075,0.0678,0.0606,0.0526,0.0533,0.0492,0.0495,0.0583,0.0673,0.0712,0.0761,0.0837,0.0855,0.0833,0.0798,0.0968,0.0981,0.0992,0.0937,0.0942,0.0858,0.0856,0.0854,0.0852,0,0.0838,0.083,0.082,0.0742,0.0642,0.0562,0.0559,0.0467,0.0476,0.0518,0.0527,0.0613,0.0655,0.0655,0.0662,0.0785,0.0734,0.0838,0.086,0.0926,0.0946,0.0962,0.0914,0.0923,0.0839,0.084,0.0841,0,0.0769,0.0728,0.0732,0.0628,0.0552,0.0479,0.0428,0.0388,0.0378,0.0336,0.0398,0.0447,0.0408,0.0499,0.0531,0.0458,0.0586,0.0571,0.0593,0.0449,0.0502,0.0525,0.0546,0.0287,0.0287,0.0286,0,0,0.0716,0.0727,0.0589,0.0602,0.0552,0.0445,0.041,0.0367,0.0328,0.0321,0.0333,0.0341,0.0379,0.0394,0.0393,0.0443,0.034,0.052,0.0546,0.0568,0.0443,0.0497,0.0519,0.0286,0.0286,0.0286,0,0,0.0685,0.0597,0.0558,0.0572,0.0459,0.0333,0.0332,0.0292,0.0274,0.0321,0.0289,0.029,0.0389,0.0302,0.0295,0.0412,0.0278,0.0279,0.0542,0.0572,0.0597,0.0459,0.026,0,0,0,0,0,0.0564,0.0604,0.0569,0.0558,0.0455,0.034,0.032,0.0268,0.0299,0.0269,0.0289,0.0277,0.0286,0.0278,0.0276,0.0424,0.0276,0.0277,0.0279,0.0626,0.0659,0.0687,0,0,0,0,0,0,0.0558,0.0545,0.0567,0.0453,0.0429,0.0341,0.0335,0.0317,0.0299,0.0297,0.0273,0.0275,0.0247,0.0278,0.0277,0.042,0.026,0.0276,0.0278,0.0279,0.0637,0.0664,0.0687,0,0,0,0,0,0.0554,0.0543,0.041,0.045,0.0429,0.0352,0.0336,0.0322,0.0308,0.0268,0.0267,0.028,0.0246,0.0247,0.0277,0.0423,0.0261,0.0261,0.0277,0.0278,0.028,0.0651,0,0,0,0,0,0,0.0551,0.0506,0.0403,0.0393,0.0474,0.0355,0.034,0.0326,0.0282,0.0277,0.0273,0.0273,0.0244,0.0246,0.0246,0.0431,0.0262,0.0262,0.0261,0.0278,0.0279,0.028,0,0,0,0,0,0,0.0512,0.0498,0.0397,0.0431,0.0423,0.0357,0.0344,0.0335,0.0287,0.0289,0.0286,0.0275,0.0293,0.0244,0.0245,0.0227,0.0263,0.0262,0.0262,0.0262,0.0279,0.028,0,0,0,0,0,0,0.0504,0.0491,0.0433,0.0427,0.042,0.0292,0.0352,0.0279,0.0229,0.0295,0.0234,0.0236,0.0296,0.0293,0.0244,0.0225,0.0226,0.0263,0.0262,0.0262,0.0262,0,0,0,0,0,0,0,0.0497,0.0606,0.0474,0.0424,0.0418,0.0296,0.0293,0.0289,0.023,0.0231,0.0233,0.0235,0.0265,0.0265,0.0264,0.0223,0,0,0.0263,0.0262,0,0,0,0,0,0,0,0,0.0608,0.0607,0.0474,0.0472,0.047,0.0296,0.0293,0.029,0.023,0.0231,0.0233,0.0234,0.0265,0.0265,0.0264,0,0,0,0,0,0,0,0,0,0,0,0,0,0,0,0.0474,0.0472,0,0.0295,0.0293,0.029,0.023,0.0231,0.0233,0.0234,0.0265,0.0265,0.0264,0,0,0,0,0,0,0,0,0,0,0,0,0,0,0,0,0,0,0,0,0,0,0,0,0,0,0,0,0,0,0,0,0,0,0,0,0,0,0,0,0,0,0,0,0,0,0,0,0,0,0,0,0,0,0,0,0,0,0,0,0,0,0,0,0,0,0,0,0]}]]]